Regional Weather Roundup
Issued by NWS Burlington, VT

Home | Current Version | Previous Version | Text Only | Print | Product List | Glossary On
Versions: 1 2 3 4 5 6 7 8 9 10 11 12 13 14 15 16 17 18 19 20 21 22 23 24 25 26 27 28 29 30 31 32 33 34 35 36 37 38 39 40 41 42 43 44 45 46 47 48 49 50
000
ASUS41 KBTV 052230
RWRBTV
VERMONT REGIONAL WEATHER ROUNDUP
NATIONAL WEATHER SERVICE BURLINGTON VT
600 PM EDT THU MAY 05 2016

NOTE: "FAIR" INDICATES FEW OR NO CLOUDS BELOW 12,000 FEET WITH NO
SIGNIFICANT WEATHER AND/OR OBSTRUCTIONS TO VISIBILITY.

* THESE REPORTS ARE NOT UNDER NWS QUALITY CONTROL AND/OR DO NOT
  REPORT WEATHER SUCH AS PRECIPITATION AND FOG.

VTZ001>019-052300-
_____VERMONT_____


CITY           SKY/WX    TMP DP  RH WIND       PRES   REMARKS
BURLINGTON     CLOUDY    60  42  51 NE9       29.76F
MONTPELIER     CLOUDY    55  42  61 N9        29.79F
MORRISVILLE    CLOUDY    56  42  59 N9        29.78F
ST. JOHNSBURY*   N/A     59  41  51 MISG      29.74F
LYNDONVILLE*   CLOUDY    55  41  58 N10       29.78F
MIDDLEBURY*    CLOUDY    59  44  57 N7        29.74S
RUTLAND*       CLOUDY    56  44  64 N7        29.74S
SPRINGFIELD    CLOUDY    55  43  63 CALM      29.73F
HIGHGATE*      CLOUDY    59  41  51 NE7       29.78F
NEWPORT*       CLOUDY    53  41  64 N8        29.79F
BENNINGTON     CLOUDY    55  43  63 N6        29.71S
GALLUP MILLS*    N/A     52 N/A N/A MISG        N/A
UNION VILLAGE*   N/A     57 N/A N/A MISG        N/A
MT. MANSFIELD*   N/A     43 N/A N/A W6          N/A

_____LAKE CHAMPLAIN_____


CITY           SKY/WX    TMP DP  RH WIND       PRES   REMARKS
COLCHESTER RF*   N/A     54  43  66 N12         N/A
DIAMOND ISL*     N/A     57  43  58 NW20        N/A

$$

NYZ007-026>031-035-052-083-087-052300-
_____NORTHERN NEW YORK_____


CITY           SKY/WX    TMP DP  RH WIND       PRES   REMARKS
PLATTSBURGH    CLOUDY    59  42  53 N12       29.78S
SARANAC LAKE   CLOUDY    53  40  61 NE13      29.76S
MASSENA        MOSUNNY   62  40  44 NE15      29.81S
OGDENSBURG*    SUNNY     63  43  48 E10G18    29.78F
POTSDAM*       CLOUDY    59  45  58 E5        29.79
STARK FALLS*     N/A     55 N/A N/A NE2         N/A
WATERTOWN      PTSUNNY   62  41  46 NE14G22   29.75F
FT DRUM        CLOUDY    59  43  55 NE13      29.76S
ALBANY         CLOUDY    57  44  62 NE13      29.72R
GLENS FALLS    CLOUDY    58  43  57 N12       29.73S

$$
NHZ002-005-011-052300-
_____NEW HAMPSHIRE_____


CITY           SKY/WX    TMP DP  RH WIND       PRES   REMARKS
LEBANON        CLOUDY    58  45  62 N6        29.72F
KEENE          CLOUDY    52  43  71 NE13      29.72F
MT WASHINGTON  FOG       34  34 100 NE23        N/A  VSB 1/16WCI  22
PLYMOUTH       CLOUDY    54  44  69 SE5       29.74F
WHITEFIELD     CLOUDY    53  40  61 E8        29.77S

$$

_____REGIONAL QUEBEC LOCATIONS_____


CITY           SKY/WX    TMP DP  RH WIND       PRES   REMARKS
MONTREAL       PTSUNNY   63  39  42 NE12G21   29.80S
QUEBEC CITY    PTSUNNY   57  34  41 E14G21    29.86S
SHERBROOKE     CLOUDY    55  41  58 NE9       29.81R

_____REGIONAL ONTARIO LOCATIONS_____


CITY           SKY/WX    TMP DP  RH WIND       PRES   REMARKS
OTTAWA         MOSUNNY   64  37  36 E9G20     29.79S

______KEY______
VSB  - VISIBILITY IN MILES
WCI  - WIND CHILL INDEX
HX   - HEAT INDEX
$$
NNNN



USA.gov is the U.S. government's official web portal to all federal, state and local government web resources and services.